Vorticity
4 5 10 6 6 6 5 3 3 4 3 2 2 5 7 7 8 6 6 5 4 6 6 7 6 5 6 7 7 7 7 8 9 9 8 8 9 9 8 8 9 8 7
9 6 9 10 5 4 4 3 4 4 3 2 2 4 8 8 7 6 4 4 7 6 4 4 5 5 4 4 4 6 7 8 7 7 7 7 7 8 8 9 9 9 9
6 9 10 8 5 4 4 5 5 4 4 2 3 6 8 8 9 5 5 6 4 2 6 5 4 4 4 4 3 2 3 4 6 6 6 6 7 7 7 6 7 7 7
12 2 9 7 8 5 4 4 4 4 4 1 2 6 8 8 6 4 5 4 3 5 3 5 5 2 1 1 2 0 1 5 1 2 1 3 4 5 5 5 6 7 7
16 0 8 6 7 4 4 5 6 7 3 5 4 8 6 7 5 4 3 3 4 2 2 3 0 2 4 2 6 7 5 3 3 3 4 4 5 5 5 5 5 5 4
13 11 11 7 5 4 4 6 8 6 5 1 9 7 9 5 4 3 3 2 3 1 2 2 2 1 2 4 6 5 9 9 8 6 5 6 6 6 6 5 5 5 5
9 9 13 8 7 7 6 2 7 5 6 7 10 7 5 5 4 2 2 3 1 1 1 2 3 2 2 6 5 7 13 12 7 6 5 5 4 4 4 5 6 7 7
12 3 5 9 17 13 5 15 6 8 5 8 8 2 5 1 6 3 1 1 2 2 1 2 4 3 4 8 11 9 5 5 5 5 5 5 5 6 5 5 5 5 6
11 5 5 9 1 -1 15 2 5 7 6 8 6 7 1 6 3 1 1 2 1 1 1 3 3 3 9 10 6 3 4 4 3 3 4 5 6 5 5 5 6 7 6
7 9 8 7 10 8 17 6 7 7 2 5 11 2 5 4 1 0 0 0 1 1 1 4 2 8 10 5 3 4 7 10 8 6 3 6 9 11 9 8 7 7 7
16 4 4 14 22 13 6 -10 -14 5 6 8 2 5 -15 2 2 1 1 1 2 2 1 2 6 9 8 5 6 7 7 5 4 6 7 8 9 8 8 8 7 7 7
8 25 23 67 61 22 -11 36 8 6 6 2 13 -0 1 1 2 1 2 2 2 1 3 5 10 9 5 6 5 6 7 7 7 7 7 7 7 7 7 8 8 7 6
15 4 17 22 2 11 48 14 4 8 -3 6 -1 4 2 2 2 1 3 3 3 3 2 11 9 5 5 3 3 1 0 1 4 6 7 7 7 6 8 8 8 7 7
11 22 8 13 28 28 -2 8 2 1 -26 -18 0 2 4 4 3 3 3 4 3 1 13 8 5 5 3 2 -0 -2 2 4 7 5 5 5 6 6 7 7 8 7 6
26 31 15 4 19 -3 59 39 51 16 7 -1 3 5 4 3 4 5 4 2 2 14 8 5 5 3 3 5 6 11 11 9 7 5 6 6 6 5 6 7 7 8 7
17 15 22 19 29 68 -4 17 -8 -8 8 1 3 4 5 4 5 3 4 9 10 8 5 5 2 3 4 6 6 8 8 7 6 5 6 6 8 6 5 5 6 7 8
13 17 11 9 -3 -7 2 -2 -3 8 5 4 5 6 5 3 4 10 11 9 7 5 3 3 -3 5 3 5 1 4 2 13 3 1 7 10 7 -1 3 5 5 3 3
-2 3 -1 3 4 4 2 4 7 6 4 5 6 5 1 8 9 8 7 7 4 3 6 3 -0 4 4 2 -1 4 2 -1 -1 -5 11 10 5 3 6 5 5 5 3
13 4 3 3 5 7 7 6 5 6 6 5 4 2 7 7 6 6 5 4 3 5 4 5 2 2 2 0 1 -1 3 1 2 5 6 4 3 9 -3 5 7 7 5
8 8 7 7 8 10 8 8 6 4 3 4 2 3 8 3 3 5 4 5 4 3 3 2 3 1 0 -1 -1 -2 7 10 28 -0 -1 8 10 12 5 -4 7 11 6
5 6 7 8 7 5 6 7 7 6 3 3 3 3 5 4 2 2 4 4 4 3 1 1 1 1 -0 -0 -0 3 -13 8 5 7 9 14 10 18 8 6 8 8 8
3 5 5 5 5 5 6 7 6 6 5 3 2 2 4 6 3 1 3 2 3 2 1 3 2 2 3 3 -3 -6 9 13 12 5 12 9 8 6 8 8 7 7 7
6 5 5 4 4 3 2 2 2 1 3 1 6 1 -3 9 7 5 2 2 2 2 2 2 1 1 5 9 39 16 8 15 7 8 6 7 8 7 8 7 8 8 10
7 5 6 5 5 4 3 3 4 3 1 5 7 7 2 3 5 8 6 4 2 2 2 2 3 8 -1 6 8 8 4 16 9 15 4 7 7 10 9 10 10 10 11
8 7 5 5 5 5 5 4 5 6 5 6 7 6 5 5 4 5 4 5 4 4 5 4 -0 6 -6 8 19 14 13 6 4 8 9 9 2 8 9 12 12 11 9
2 3 8 8 5 4 4 7 4 11 6 7 5 11 9 6 11 10 2 22 5 5 -5 4 5 12 -15 -8 18 9 8 9 9 7 8 10 10 10 12 12 9 10 11
Height
3144 3147 3149 3151 3153 3157 3160 3164 3167 3169 3170 3171 3172 3174 3175 3177 3178 3178 3179 3180 3180 3181 3180 3181 3182 3182 3182 3181 3181 3180 3180 3180 3178 3177 3177 3177 3176 3174 3175 3174 3175 3174 3174
3143 3146 3147 3149 3152 3156 3159 3162 3166 3168 3170 3171 3173 3174 3175 3177 3179 3179 3180 3181 3182 3182 3182 3182 3183 3182 3183 3182 3182 3181 3181 3181 3179 3179 3179 3178 3177 3175 3175 3174 3174 3174 3173
3140 3142 3144 3147 3151 3155 3158 3161 3165 3167 3170 3171 3173 3174 3177 3179 3180 3180 3181 3183 3183 3184 3184 3183 3183 3183 3183 3183 3183 3182 3182 3182 3181 3180 3179 3178 3177 3176 3175 3174 3173 3172 3172
3139 3137 3142 3146 3150 3153 3157 3160 3163 3166 3169 3171 3173 3175 3178 3180 3181 3181 3182 3184 3185 3185 3185 3185 3184 3185 3184 3184 3183 3183 3182 3182 3182 3180 3178 3177 3177 3176 3175 3174 3173 3172 3171
3137 3136 3142 3145 3149 3153 3156 3160 3163 3166 3169 3171 3174 3176 3179 3180 3182 3182 3184 3186 3186 3186 3186 3186 3185 3185 3184 3184 3183 3182 3182 3181 3180 3179 3177 3176 3176 3175 3174 3173 3172 3172 3171
3135 3137 3141 3145 3147 3150 3153 3157 3161 3165 3169 3172 3174 3177 3179 3181 3182 3184 3184 3186 3186 3186 3186 3186 3185 3185 3185 3183 3181 3181 3180 3180 3179 3179 3178 3177 3176 3174 3173 3172 3172 3172 3170
3133 3136 3140 3143 3145 3147 3150 3154 3160 3164 3168 3171 3175 3176 3179 3181 3183 3184 3186 3186 3187 3187 3187 3186 3185 3185 3184 3182 3182 3181 3181 3181 3181 3180 3178 3176 3175 3174 3172 3171 3170 3169 3169
3132 3134 3136 3138 3140 3142 3145 3150 3156 3161 3167 3171 3175 3176 3180 3181 3182 3185 3186 3187 3187 3187 3186 3185 3185 3185 3183 3184 3183 3182 3181 3180 3179 3179 3178 3176 3175 3174 3172 3171 3169 3167 3167
3130 3132 3132 3133 3135 3138 3143 3147 3155 3158 3165 3169 3174 3176 3178 3181 3183 3185 3186 3187 3187 3187 3186 3185 3184 3184 3184 3183 3182 3182 3181 3180 3180 3179 3177 3176 3174 3172 3172 3170 3169 3167 3165
3129 3130 3131 3133 3133 3137 3139 3144 3151 3157 3162 3168 3173 3176 3177 3181 3184 3185 3186 3187 3187 3186 3186 3185 3185 3185 3185 3183 3182 3182 3181 3181 3180 3178 3176 3175 3173 3172 3169 3168 3167 3166 3164
3126 3128 3128 3131 3127 3129 3132 3139 3142 3157 3162 3165 3170 3173 3177 3181 3183 3184 3185 3186 3186 3186 3186 3186 3185 3185 3184 3183 3182 3182 3181 3180 3179 3177 3174 3172 3170 3169 3168 3167 3165 3163 3161
3125 3126 3127 3125 3121 3128 3129 3138 3149 3155 3158 3163 3168 3170 3173 3179 3181 3183 3184 3186 3185 3186 3186 3185 3185 3184 3184 3182 3181 3180 3179 3178 3177 3175 3172 3171 3168 3168 3166 3165 3163 3160 3159
3123 3125 3125 3127 3128 3130 3135 3138 3144 3150 3154 3158 3163 3169 3173 3180 3182 3183 3184 3184 3185 3185 3185 3184 3183 3183 3182 3181 3180 3178 3177 3174 3173 3171 3170 3168 3166 3165 3163 3162 3160 3158 3156
3120 3122 3125 3126 3125 3126 3126 3128 3139 3148 3154 3161 3165 3168 3173 3179 3181 3182 3183 3184 3184 3183 3182 3182 3182 3180 3179 3178 3177 3176 3175 3174 3172 3169 3166 3165 3162 3161 3158 3157 3157 3155 3153
3118 3118 3121 3122 3127 3130 3133 3139 3145 3152 3158 3163 3165 3168 3174 3177 3179 3181 3182 3182 3182 3181 3180 3180 3179 3178 3175 3174 3174 3174 3173 3171 3169 3167 3163 3161 3159 3158 3156 3153 3152 3151 3149
3120 3122 3124 3126 3130 3132 3137 3143 3150 3154 3158 3162 3166 3170 3174 3176 3177 3179 3179 3180 3180 3180 3178 3179 3176 3174 3174 3173 3173 3173 3171 3169 3167 3164 3161 3158 3157 3155 3153 3150 3147 3145 3144
3125 3126 3130 3132 3137 3140 3143 3148 3151 3155 3159 3162 3166 3170 3173 3175 3176 3176 3177 3178 3178 3177 3175 3175 3174 3173 3173 3172 3170 3169 3167 3165 3164 3161 3158 3155 3152 3151 3148 3145 3142 3140 3137
3132 3134 3134 3137 3141 3145 3147 3150 3153 3156 3159 3162 3167 3170 3171 3173 3173 3174 3174 3176 3174 3173 3172 3173 3171 3172 3169 3168 3167 3164 3162 3162 3160 3157 3154 3152 3149 3144 3142 3139 3136 3133 3130
3136 3137 3138 3140 3143 3146 3149 3151 3154 3156 3160 3164 3167 3169 3170 3170 3171 3172 3171 3172 3172 3171 3170 3169 3168 3169 3166 3165 3163 3160 3158 3155 3153 3150 3147 3145 3143 3140 3136 3133 3129 3125 3122
3137 3140 3142 3143 3145 3148 3151 3153 3155 3158 3161 3163 3164 3166 3167 3168 3169 3169 3168 3169 3169 3168 3167 3166 3164 3166 3163 3161 3158 3154 3152 3149 3146 3143 3140 3137 3134 3131 3129 3126 3121 3116 3115
3139 3141 3143 3145 3147 3149 3152 3154 3156 3157 3159 3161 3162 3163 3164 3165 3166 3165 3166 3166 3166 3164 3163 3162 3161 3161 3159 3156 3153 3147 3143 3143 3140 3137 3134 3130 3126 3123 3120 3118 3115 3111 3105
3140 3142 3144 3147 3149 3150 3152 3154 3155 3157 3158 3160 3160 3162 3163 3163 3163 3162 3162 3162 3161 3160 3159 3159 3157 3156 3153 3151 3148 3144 3140 3132 3130 3131 3126 3122 3119 3115 3111 3108 3106 3102 3099
3139 3141 3144 3146 3148 3150 3151 3152 3154 3155 3156 3157 3158 3158 3159 3159 3159 3158 3158 3157 3157 3156 3154 3154 3153 3151 3148 3144 3141 3140 3135 3132 3124 3115 3117 3116 3112 3108 3104 3100 3096 3093 3089
3138 3140 3142 3144 3145 3147 3148 3149 3151 3152 3153 3154 3154 3155 3155 3154 3154 3153 3152 3152 3151 3151 3149 3148 3146 3144 3140 3137 3134 3132 3129 3126 3122 3117 3107 3104 3104 3101 3096 3093 3089 3083 3079
3136 3138 3140 3142 3143 3145 3146 3147 3148 3149 3150 3149 3150 3150 3150 3149 3148 3147 3146 3145 3144 3143 3142 3141 3138 3134 3133 3131 3127 3122 3119 3116 3114 3111 3107 3103 3092 3088 3086 3084 3079 3077 3073
3133 3134 3136 3138 3140 3141 3143 3143 3144 3145 3145 3144 3144 3144 3144 3143 3142 3140 3139 3137 3136 3135 3134 3132 3130 3127 3123 3122 3120 3117 3113 3109 3105 3101 3097 3093 3088 3084 3079 3076 3071 3068 3064